Location: Newark
(47.7625°N, 12.7492°E)
Time: 13:35:37
(UTC+00:00)

N. Korean satellite - Visible Passes

Search period start: 23 September 2019 00:00
Search period end: 03 October 2019 00:00
Orbit: 455 x 509 km, 97.2° (Epoch: 22 September)

Date Brightness Start Highest point End Pass type
(mag) Time Alt. Az. Time Alt. Az. Time Alt. Az.
25 Sep 9.5 04:26:44 10° NE 04:29:30 22° E 04:32:14 10° SSE visible
26 Sep 10.2 04:02:48 10° ENE 04:04:03 12° E 04:05:18 10° ESE visible
29 Sep 9.7 04:19:23 10° NE 04:21:53 18° E 04:24:22 10° SE visible
01 Oct 10.0 17:14:56 10° SW 17:17:08 16° W 17:19:20 10° NW visible
02 Oct 8.9 04:36:34 10° NNE 04:39:39 29° E 04:42:44 10° SSE visible
